| time (UTC) | temp F | wind direction | speed MPH | gust MPH | rain 1hr in | rain 24hr in | rain mn in | humidity % | barometer mb |
| 20260831103011 | 73 | 215 | 0.0 | 3.0 | 0.00 | 0.19 | 0.00 | 76 | 1015.1 |
| 20260831101507 | 73 | 202 | 0.0 | 3.0 | 0.00 | 0.19 | 0.00 | 77 | 1015.0 |
| 20260831100038 | 73 | 236 | 0.0 | 3.0 | 0.00 | 0.19 | 0.00 | 78 | 1014.7 |
| 20260831094529 | 72 | 223 | 0.0 | 3.0 | 0.00 | 0.19 | 0.00 | 79 | 1014.6 |
| 20260831093036 | 72 | 221 | 0.0 | 2.0 | 0.00 | 0.19 | 0.00 | 81 | 1014.9 |
| 20260831091517 | 72 | 205 | 0.0 | 2.0 | 0.00 | 0.19 | 0.00 | 83 | 1014.9 |
| 20260831090012 | 71 | 214 | 0.0 | 2.0 | 0.00 | 0.19 | 0.00 | 84 | 1014.9 |
| 20260831084508 | 72 | 214 | 0.0 | 0.0 | 0.00 | 0.19 | 0.00 | 84 | 1015.0 |
| 20260831083029 | 72 | 214 | 0.0 | 0.0 | 0.00 | 0.19 | 0.00 | 83 | 1015.1 |
| 20260831081534 | 72 | 214 | 0.0 | 2.0 | 0.00 | 0.19 | 0.00 | 83 | 1014.9 |
| 20260831080024 | 72 | 231 | 0.0 | 1.0 | 0.00 | 0.19 | 0.00 | 84 | 1014.9 |
| 20260831074525 | 72 | 229 | 0.0 | 1.0 | 0.00 | 0.19 | 0.00 | 84 | 1015.0 |
| 20260831073012 | 72 | 292 | 0.0 | 2.0 | 0.00 | 0.19 | 0.00 | 85 | 1015.0 |
| 20260831071510 | 73 | 213 | 0.0 | 1.0 | 0.00 | 0.19 | 0.00 | 85 | 1015.1 |
| 20260831070032 | 73 | 213 | 0.0 | 1.0 | 0.00 | 0.19 | 0.00 | 85 | 1015.0 |
| 20260831064530 | 74 | 200 | 0.0 | 2.0 | 0.00 | 0.19 | 0.00 | 84 | 1015.2 |
| 20260831063032 | 74 | 198 | 0.0 | 2.0 | 0.00 | 0.19 | 0.00 | 83 | 1015.2 |
| 20260831061523 | 75 | 244 | 0.0 | 3.0 | 0.00 | 0.19 | 0.00 | 82 | 1015.0 |
| 20260831060018 | 75 | 194 | 2.0 | 4.0 | 0.00 | 0.19 | 0.00 | 83 | 1015.1 |
| 20260831054513 | 75 | 205 | 0.0 | 4.0 | 0.00 | 0.19 | 0.00 | 84 | 1015.0 |
| 20260831053046 | 74 | 218 | 1.0 | 4.0 | 0.00 | 0.19 | 0.00 | 86 | 1014.9 |
| 20260831051534 | 73 | 188 | 1.0 | 5.0 | 0.00 | 0.19 | 0.00 | 89 | 1014.7 |
| 20260831050030 | 73 | 229 | 0.0 | 3.0 | 0.00 | 0.19 | 0.00 | 92 | 1015.0 |
| 20260831044527 | 73 | 232 | 0.0 | 3.0 | 0.00 | 0.19 | 0.19 | 94 | 1015.1 |
| 20260831043019 | 73 | 210 | 0.0 | 2.0 | 0.00 | 0.19 | 0.19 | 94 | 1015.2 |
| 20260831041515 | 73 | 205 | 0.0 | 2.0 | 0.00 | 0.19 | 0.19 | 94 | 1015.5 |
| 20260831040033 | 73 | 205 | 0.0 | 1.0 | 0.00 | 0.19 | 0.19 | 94 | 1015.6 |
| 20260831034530 | 72 | 276 | 0.0 | 0.0 | 0.01 | 0.19 | 0.19 | 94 | 1015.8 |
| 20260831033040 | 72 | 276 | 0.0 | 0.0 | 0.02 | 0.19 | 0.19 | 94 | 1016.0 |
| 20260831031528 | 72 | 276 | 0.0 | 0.0 | 0.02 | 0.19 | 0.19 | 94 | 1016.5 |
| 20260831030025 | 72 | 276 | 0.0 | 0.0 | 0.02 | 0.19 | 0.19 | 94 | 1016.6 |
| 20260831024531 | 72 | 276 | 0.0 | 0.0 | 0.01 | 0.18 | 0.18 | 94 | 1016.5 |
| 20260831023037 | 72 | 276 | 0.0 | 0.0 | 0.00 | 0.17 | 0.17 | 94 | 1016.4 |
| 20260831021514 | 72 | 276 | 0.0 | 0.0 | 0.00 | 0.17 | 0.17 | 94 | 1016.5 |
| 20260831020007 | 73 | 276 | 0.0 | 1.0 | 0.00 | 0.17 | 0.17 | 94 | 1016.7 |
| 20260831014505 | 72 | 276 | 0.0 | 0.0 | 0.00 | 0.17 | 0.17 | 94 | 1016.2 |
| 20260831013027 | 72 | 276 | 0.0 | 0.0 | 0.00 | 0.17 | 0.17 | 93 | 1016.4 |
| 20260831011525 | 72 | 276 | 0.0 | 0.0 | 0.00 | 0.17 | 0.17 | 93 | 1016.3 |
| 20260831010016 | 72 | 276 | 0.0 | 1.0 | 0.00 | 0.17 | 0.17 | 93 | 1016.3 |
| 20260831004512 | 73 | 202 | 0.0 | 0.0 | 0.01 | 0.17 | 0.17 | 93 | 1015.8 |
| 20260831003009 | 73 | 202 | 0.0 | 0.0 | 0.01 | 0.17 | 0.17 | 93 | 1015.7 |
| 20260831001506 | 73 | 202 | 0.0 | 0.0 | 0.01 | 0.17 | 0.17 | 93 | 1016.0 |
| 20260831000028 | 73 | 202 | 0.0 | 0.0 | 0.01 | 0.17 | 0.17 | 93 | 1016.2 |
| 20260830234539 | 73 | 202 | 0.0 | 0.0 | 0.01 | 0.16 | 0.16 | 93 | 1016.3 |
| 20260830233026 | 73 | 202 | 0.0 | 0.0 | 0.01 | 0.16 | 0.16 | 93 | 1016.6 |
| 20260830231536 | 73 | 202 | 0.0 | 0.0 | 0.01 | 0.16 | 0.16 | 93 | 1016.1 |
| 20260830230034 | 73 | 202 | 0.0 | 0.0 | 0.01 | 0.16 | 0.16 | 92 | 1016.4 |
| 20260830224530 | 74 | 202 | 0.0 | 0.0 | 0.01 | 0.15 | 0.15 | 92 | 1016.9 |
| 20260830223031 | 74 | 202 | 0.0 | 0.0 | 0.01 | 0.15 | 0.15 | 92 | 1016.9 |
| 20260830221527 | 74 | 202 | 0.0 | 0.0 | 0.01 | 0.15 | 0.15 | 92 | 1016.6 |
| 20260830220024 | 74 | 202 | 0.0 | 0.0 | 0.01 | 0.15 | 0.15 | 91 | 1016.6 |
| 20260830214540 | 74 | 202 | 0.0 | 0.0 | 0.00 | 0.14 | 0.14 | 90 | 1016.4 |
| 20260830213046 | 74 | 202 | 0.0 | 0.0 | 0.00 | 0.14 | 0.14 | 90 | 1016.6 |
| 20260830211550 | 75 | 202 | 0.0 | 1.0 | 0.00 | 0.14 | 0.14 | 90 | 1016.7 |
| 20260830210049 | 75 | 202 | 0.0 | 1.0 | 0.01 | 0.14 | 0.14 | 89 | 1016.9 |
| 20260830204528 | 75 | 196 | 0.0 | 2.0 | 0.03 | 0.14 | 0.14 | 89 | 1016.7 |
| 20260830203040 | 75 | 200 | 0.0 | 2.0 | 0.04 | 0.14 | 0.14 | 89 | 1016.8 |
| 20260830201504 | 75 | 237 | 0.0 | 1.0 | 0.04 | 0.14 | 0.14 | 87 | 1016.8 |
| 20260830200014 | 76 | 237 | 0.0 | 1.0 | 0.03 | 0.13 | 0.13 | 86 | 1017.0 |
| 20260830194515 | 77 | 237 | 0.0 | 2.0 | 0.01 | 0.11 | 0.11 | 82 | 1017.3 |
| 20260830193015 | 77 | 292 | 0.0 | 1.0 | 0.00 | 0.10 | 0.10 | 82 | 1016.9 |
| 20260830191515 | 79 | 298 | 0.0 | 0.0 | 0.00 | 0.10 | 0.10 | 78 | 1016.8 |
| 20260830190003 | 80 | 281 | 0.0 | 5.0 | 0.00 | 0.10 | 0.10 | 71 | 1016.7 |
| 20260830184504 | 80 | 205 | 1.0 | 5.0 | 0.00 | 0.10 | 0.10 | 70 | 1016.3 |
| 20260830183016 | 81 | 217 | 1.0 | 7.0 | 0.00 | 0.10 | 0.10 | 69 | 1016.1 |
| 20260830181516 | 81 | 248 | 1.0 | 6.0 | 0.00 | 0.10 | 0.10 | 69 | 1015.6 |
| 20260830180019 | 81 | 247 | 2.0 | 7.0 | 0.00 | 0.10 | 0.10 | 70 | 1015.6 |
| 20260830174512 | 79 | 224 | 2.0 | 6.0 | 0.00 | 0.10 | 0.10 | 70 | 1015.9 |
| 20260830173005 | 79 | 306 | 1.0 | 8.0 | 0.00 | 0.10 | 0.10 | 71 | 1016.2 |
| 20260830171504 | 78 | 244 | 1.0 | 7.0 | 0.00 | 0.10 | 0.10 | 71 | 1016.3 |
| 20260830170024 | 77 | 214 | 1.0 | 7.0 | 0.00 | 0.10 | 0.10 | 72 | 1016.4 |
| 20260830164516 | 77 | 249 | 2.0 | 7.0 | 0.00 | 0.10 | 0.10 | 72 | 1016.1 |
| 20260830163015 | 77 | 68 | 3.0 | 10.0 | 0.00 | 0.10 | 0.10 | 73 | 1016.2 |
| 20260830161525 | 76 | 216 | 1.0 | 8.0 | 0.00 | 0.10 | 0.10 | 77 | 1016.1 |
| 20260830160011 | 75 | 217 | 2.0 | 5.0 | 0.00 | 0.10 | 0.10 | 77 | 1016.2 |
| 20260830154535 | 75 | 173 | 1.0 | 8.0 | 0.00 | 0.10 | 0.10 | 81 | 1016.3 |
| 20260830153043 | 73 | 261 | 1.0 | 7.0 | 0.00 | 0.10 | 0.10 | 84 | 1016.0 |
| 20260830151518 | 72 | 237 | 2.0 | 6.0 | 0.00 | 0.10 | 0.10 | 87 | 1015.9 |
| 20260830150016 | 71 | 63 | 1.0 | 7.0 | 0.00 | 0.10 | 0.10 | 89 | 1015.7 |
| 20260830144513 | 70 | 200 | 1.0 | 5.0 | 0.00 | 0.10 | 0.10 | 91 | 1015.9 |
| 20260830143016 | 69 | 216 | 0.0 | 3.0 | 0.00 | 0.10 | 0.10 | 91 | 1016.3 |
| 20260830141531 | 68 | 207 | 1.0 | 5.0 | 0.00 | 0.10 | 0.10 | 91 | 1016.3 |
| 20260830140029 | 68 | 200 | 1.0 | 3.0 | 0.02 | 0.10 | 0.10 | 92 | 1016.4 |
| 20260830134533 | 68 | 229 | 0.0 | 3.0 | 0.02 | 0.10 | 0.10 | 92 | 1016.5 |
| 20260830133018 | 67 | 192 | 1.0 | 4.0 | 0.05 | 0.10 | 0.10 | 92 | 1016.9 |
| 20260830131517 | 67 | 209 | 0.0 | 2.0 | 0.06 | 0.10 | 0.10 | 91 | 1017.1 |
| 20260830130014 | 67 | 226 | 0.0 | 2.0 | 0.06 | 0.08 | 0.08 | 91 | 1017.2 |
| 20260830124533 | 68 | 219 | 0.0 | 1.0 | 0.08 | 0.08 | 0.08 | 90 | 1017.7 |
| 20260830123031 | 68 | 219 | 0.0 | 1.0 | 0.05 | 0.05 | 0.05 | 89 | 1017.9 |
| 20260830121527 | 69 | 203 | 0.0 | 2.0 | 0.04 | 0.04 | 0.04 | 87 | 1017.4 |
| 20260830120024 | 69 | 227 | 0.0 | 3.0 | 0.02 | 0.02 | 0.02 | 85 | 1017.5 |
| 20260830114526 | 70 | 223 | 0.0 | 3.0 | 0.00 | 0.00 | 0.00 | 83 | 1017.2 |
| 20260830113014 | 71 | 296 | 0.0 | 4.0 | 0.00 | 0.00 | 0.00 | 80 | 1016.9 |
| 20260830111536 | 71 | 261 | 2.0 | 4.0 | 0.00 | 0.00 | 0.00 | 79 | 1016.5 |
| 20260830110032 | 71 | 264 | 1.0 | 6.0 | 0.00 | 0.00 | 0.00 | 79 | 1016.2 |
| 20260830104529 | 71 | 187 | 0.0 | 3.0 | 0.00 | 0.00 | 0.00 | 79 | 1015.9 |